Location: Unspecified
(47.4992°N, 121.7766°W)
Time: 15:28:42
(UTC-07:00)

Okean 3 - Pass Details

Date: 11 August 2024
Orbit: 557 x 581 km, 82.5° (Epoch: 08 September)

Event Time Altitude Azimuth Distance (km) Brightness Sun altitude
Rises 01:15:30 0° 7° (N) 2,757 8.2 -27.4°
Reaches altitude 10° 01:18:38 10° 33° (NNE) 1,853 6.7 -27.4°
Maximum altitude 01:20:50 14° 66° (ENE) 1,597 5.9 -27.4°
Enters shadow 01:21:25 14° 75° (ENE) 1,614 5.8 -27.4°
